Location: Omaha
(41.2590°N, 95.9380°W)
Time: 21:25:36
(UTC-06:00)

Envisat - Pass Details

Date: 08 October 2017
Orbit: 764 x 766 km, 98.2° (Epoch: 17 December)

Event Time Altitude Azimuth Distance (km) Brightness Sun altitude
Exits shadow 19:41:28 12° 81° (E) 2,154 4.7 -9.8°
Maximum altitude 19:43:05 14° 60° (ENE) 2,044 4.7 -10.1°
Drops below altitude 10° 19:45:36 10° 30° (NNE) 2,311 5.2 -10.6°
Sets 19:49:00 0° 6° (N) 3,243 6.2 -11.2°
